Location: Radom
(51.4000°N, 21.1667°E)
Time: 02:31:17
(UTC+02:00)

ISS - Visible Passes

Search period start: 23 September 2018 00:00
Search period end: 03 October 2018 00:00
Orbit: 403 x 408 km, 51.6° (Epoch: 23 September)

Date Brightness Start Highest point End Pass type
(mag) Time Alt. Az. Time Alt. Az. Time Alt. Az.
23 Sep -2.0 19:37:02 10° S 19:39:11 16° SE 19:39:38 16° SE visible
23 Sep -1.0 21:11:57 10° WSW 21:12:21 13° WSW 21:12:21 13° WSW visible
24 Sep -3.1 20:20:15 10° SW 20:22:54 38° S 20:22:54 38° S visible
25 Sep -2.7 19:28:43 10° SSW 19:31:36 28° SSE 19:33:18 18° ESE visible
25 Sep -1.7 21:04:33 10° WSW 21:05:59 24° WSW 21:05:59 24° WSW visible
26 Sep -3.9 20:12:41 10° WSW 20:15:58 65° SSE 20:16:15 60° SE visible
27 Sep -3.4 19:20:54 10° SW 19:24:05 47° SSE 19:26:26 16° E visible
27 Sep -2.1 20:57:12 10° W 20:59:07 32° W 20:59:07 32° W visible
28 Sep -3.9 20:05:15 10° W 20:08:33 87° S 20:09:12 55° E visible
28 Sep -0.4 21:41:48 10° W 21:41:52 11° W 21:41:52 11° W visible
29 Sep -3.8 19:13:19 10° WSW 19:16:37 72° SSE 19:19:14 15° E visible
29 Sep -2.3 20:49:49 10° W 20:51:54 36° W 20:51:54 36° W visible
30 Sep -3.9 19:57:51 10° W 20:01:09 84° N 20:01:54 50° E visible
30 Sep -0.4 21:34:22 10° W 21:34:34 11° W 21:34:34 11° W visible
01 Oct -3.8 19:05:51 10° W 19:09:10 89° N 19:11:53 14° E visible
01 Oct -2.4 20:42:23 10° W 20:44:32 37° W 20:44:32 37° W visible
02 Oct -3.9 19:50:23 10° W 19:53:41 88° N 19:54:30 49° E visible
02 Oct -0.5 21:26:57 10° W 21:27:09 11° W 21:27:09 11° W visible
